This is the latest recevied weather packets stored in our database for station/object DM5KA. If no packets are shown the sender has not sent any weather packets the latest 10 day(s).
| Time | Temp. | Humidity | Pressure | Rain* | Wind** | Luminosity | Snow |
|---|---|---|---|---|---|---|---|
| 1777740003 | 26.11° C | 21% | 1016.9 hPa | 0 mm | 4.02 m/s, 225° | - | - |
| 1777739703 | 26.11° C | 21% | 1016.9 hPa | 0 mm | 3.58 m/s, 248° | - | - |
| 1777739402 | 26.11° C | 21% | 1016.9 hPa | 0 mm | 3.58 m/s, 202° | - | - |
| 1777739102 | 26.11° C | 20% | 1016.9 hPa | 0 mm | 2.24 m/s, 248° | - | - |
| 1777738803 | 26.11° C | 21% | 1016.9 hPa | 0 mm | 2.24 m/s, 225° | - | - |
| 1777738502 | 26.11° C | 20% | 1016.9 hPa | 0 mm | 5.36 m/s, 135° | - | - |
| 1777738203 | 26.11° C | 22% | 1016.9 hPa | 0 mm | 3.58 m/s, 202° | - | - |
| 1777737903 | 26.11° C | 21% | 1016.9 hPa | 0 mm | 4.47 m/s, 248° | - | - |
| 1777737602 | 26.11° C | 22% | 1016.9 hPa | 0 mm | 2.68 m/s, 248° | - | - |
| 1777737303 | 26.11° C | 21% | 1016.9 hPa | 0 mm | 5.36 m/s, 225° | - | - |
| 1777737003 | 26.11° C | 22% | 1016.9 hPa | 0 mm | 4.02 m/s, 248° | - | - |
| 1777736703 | 26.11° C | 20% | 1016.9 hPa | 0 mm | 5.36 m/s, 248° | - | - |
| 1777736402 | 26.11° C | 22% | 1016.9 hPa | 0 mm | 4.47 m/s, 248° | - | - |
| 1777736103 | 26.11° C | 21% | 1016.9 hPa | 0 mm | 3.58 m/s, 135° | - | - |
| 1777735803 | 26.11° C | 21% | 1016.9 hPa | 0 mm | 4.92 m/s, 248° | - | - |
| 1777735502 | 26.11° C | 22% | 1016.9 hPa | 0 mm | 1.79 m/s, 112° | - | - |
| 1777735202 | 27.22° C | 21% | 1016.9 hPa | 0 mm | 2.68 m/s, 248° | - | - |
| 1777734903 | 27.22° C | 22% | 1018 hPa | 0 mm | 6.26 m/s, 202° | - | - |
| 1777734602 | 27.22° C | 22% | 1018 hPa | 0 mm | 1.34 m/s, 180° | - | - |
| 1777734302 | 26.11° C | 23% | 1018 hPa | 0 mm | 3.13 m/s, 292° | - | - |
| 1777734003 | 27.22° C | 22% | 1018 hPa | 0 mm | 3.58 m/s, 202° | - | - |
| 1777733703 | 26.11° C | 22% | 1018 hPa | 0 mm | 2.24 m/s, 225° | - | - |
| 1777733403 | 26.11° C | 23% | 1018 hPa | 0 mm | 1.34 m/s, 248° | - | - |
| 1777733102 | 26.11° C | 23% | 1018 hPa | 0 mm | 3.58 m/s, 292° | - | - |
| 1777732803 | 26.11° C | 23% | 1018 hPa | 0 mm | 5.81 m/s, 225° | - | - |
* Rain latest hour (hover to see other rain measurements)
** Current wind speed in m/s (hover to see current wind gust speed)